Vertical_Velocity
-2 -1 3 -4 1 -2 -1 -1 -1 -0 2 2 -1 3 -5 -2 1 -2 -4 -7 1 4 5 0 1 5 3 1 0 -1 0 0 -5 -0 -0 -0 -0 0 0 -1 2 1 0 1 4
-2 0 1 0 -3 -3 -2 -1 1 -3 -1 -1 1 3 6 -1 -1 -5 -3 -3 -9 11 1 -4 -2 4 4 1 3 -1 1 -5 -4 -1 -0 -0 -1 0 -2 -0 -1 1 0 3 8
-1 3 -1 -1 -3 -1 -1 -1 -1 -0 -1 1 6 4 1 -2 -0 0 2 -5 -13 8 3 1 0 7 2 0 -1 -1 -5 -1 3 -1 0 -1 -1 0 -0 0 1 1 -3 4 5
-0 -0 -3 -1 -1 -2 -2 2 -1 -0 -1 2 8 4 1 -0 -3 -1 -2 4 9 7 9 5 2 1 -1 -0 1 -0 0 -2 -1 1 -0 -0 -1 0 -2 1 3 4 -1 -2 -1
2 -0 -1 -2 1 -5 -1 0 -0 0 -2 -1 -3 -5 -1 1 -2 -3 1 -1 26 12 3 -2 4 -2 -1 -1 1 0 0 2 1 1 -2 -1 0 -1 -2 -1 2 5 4 1 -0
4 -1 0 1 2 1 -2 -4 1 1 -1 -4 -1 -2 -1 -2 -0 -0 -0 3 6 -3 2 2 -0 -2 -3 -1 -2 -3 0 -1 4 -1 -1 -0 -0 -4 3 1 1 -2 -0 2 3
1 -1 -1 -4 -1 -0 -0 2 1 1 -1 -3 -2 -4 -1 -2 -0 1 6 -15 -5 0 2 -1 1 2 0 1 2 2 -1 0 2 -0 1 0 -2 -2 10 -2 -5 -3 -1 -0 -1
-0 2 -0 -6 -1 -2 2 1 1 1 1 -2 -1 -1 -2 -1 2 2 2 -2 -15 9 1 -9 8 1 -1 2 3 -2 -3 1 1 2 1 -9 -19 -5 2 -1 -4 -7 -2 -2 1
0 2 1 -1 -0 1 -0 1 -1 1 1 1 -1 -3 0 -4 2 -2 4 3 -0 1 1 3 -10 1 2 -1 1 1 -1 0 4 -0 -0 -6 -5 -12 -3 1 -3 -5 -2 -3 -2
-2 0 0 -1 -1 -4 -1 1 1 1 0 1 1 -2 -0 1 -2 2 -2 3 0 -3 17 10 -4 1 1 2 -7 -0 0 1 -2 1 3 4 -1 -1 0 -1 -1 -2 -3 -5 -2
1 0 2 -1 -0 -2 1 -0 -2 1 -1 1 -0 -1 1 1 1 -0 2 -4 -3 -1 -1 1 -3 -4 -3 -1 -1 -2 -1 -2 2 0 -2 -3 -0 -3 -2 0 -3 -3 -4 -6 -5
2 1 0 -3 2 1 -1 -0 1 -0 -2 0 1 -4 6 -3 2 4 -4 -1 -5 -0 4 5 0 -4 -1 -0 -2 0 -1 2 1 1 1 1 -4 -2 -0 -2 -3 -1 -3 -5 -4
2 -0 2 -3 3 3 -3 1 1 0 -2 -0 -2 2 -3 -3 -1 4 0 0 -1 1 1 -3 1 0 0 1 -2 0 -3 0 -5 1 1 1 -1 2 1 1 -1 -4 -7 -1 -6
2 1 1 -2 4 -3 -2 1 -0 -0 -5 -1 -0 1 -2 -1 -1 6 -3 -2 -0 -0 -0 -1 5 -4 1 -0 -4 -0 -1 -1 -0 -3 -2 -1 -5 1 -1 -0 2 -4 -4 -5 2
0 1 0 -1 -1 -2 1 3 -1 -4 -8 1 2 -3 1 -4 -2 0 -1 5 0 2 -3 3 1 2 0 -5 -1 -3 -1 -2 -1 -1 0 2 2 -7 2 2 -2 -5 -8 2 -2
-1 3 2 -0 -1 -2 -2 0 -1 -20 -9 3 -0 1 2 -1 0 -2 0 4 1 -3 -1 2 3 -1 -2 1 0 -1 -3 -3 -1 -1 1 -2 0 -5 -1 -10 -1 -2 -5 -16 -7
-1 2 2 -1 -2 2 -5 1 -10 -9 -5 1 0 1 -0 0 1 -0 0 1 -3 -3 0 2 2 -0 2 -4 -0 -2 -3 -1 -1 1 -4 -0 2 -12 -2 -1 -3 -4 -3 -5 6
0 3 -1 1 -5 -2 -0 -9 -10 -3 -0 -1 -0 1 -0 -2 1 1 1 1 2 -2 -1 -2 6 0 -1 -2 -6 0 -4 -6 -4 -1 -3 0 -3 -17 -2 1 0 0 2 3 -1
1 3 -0 -1 -1 -3 -2 -5 -9 -3 -2 -1 1 2 1 2 -2 2 0 -0 -1 -1 -3 -1 1 2 -1 -0 -3 -2 -3 -3 -5 -0 -2 -3 -5 -6 -0 -2 -1 -1 -1 -2 -1
-1 3 0 1 -0 -1 -5 -1 -2 -1 0 0 -0 0 -0 0 -1 0 0 -0 -1 -1 2 -0 -1 1 2 -0 -1 -3 -4 -5 -4 -3 -0 -2 -1 -6 -2 -2 -2 -2 -2 0 -1
0 1 1 2 -1 -0 -3 -3 -0 -1 -0 -1 -0 0 -1 -1 -2 -0 -3 -1 0 2 -0 -1 -5 3 0 -1 -3 -1 0 -3 -5 -2 -2 -1 -6 -4 -2 0 -0 -2 -1 -2 2
-0 -4 1 1 -0 0 -0 -2 0 0 0 -0 1 -0 -0 -0 -0 -0 -3 -1 0 -3 -1 -2 -1 -1 1 0 0 0 -1 -2 -5 -3 -0 -2 -13 -1 -1 0 0 -2 -0 -0 2
-1 -0 3 1 -2 -1 -2 -0 -0 1 -0 1 -0 0 -1 -1 -2 -1 0 -0 -1 -1 -3 -3 -1 -0 -1 1 -1 -0 0 -1 -1 -2 -3 -2 -8 -0 -0 0 -1 -1 1 0 -2
-0 -5 2 1 1 -0 -0 -1 -0 1 0 0 -0 -1 -1 -1 -1 0 0 1 1 -0 1 -3 -0 -6 -10 -9 -4 2 1 0 -3 1 -2 -7 -3 -6 -1 -1 -1 1 -1 -1 -0
-2 -1 -1 -2 -2 -0 -0 0 -0 -1 -1 -0 0 -1 -1 -1 -1 -0 0 1 0 1 -1 -3 -2 -1 -0 -0 -0 -2 -1 -0 2 -6 1 -5 -1 -9 -4 -0 -3 -1 1 0 -0
-3 -4 0 -0 -1 -1 -1 0 0 -2 1 -1 -3 0 -0 -2 1 -1 -1 -1 -3 2 -0 -1 -1 -0 -1 1 -0 0 -0 0 -0 -1 2 2 -13 -2 -3 -1 -1 -0 -1 -3 -3
-2 -2 2 2 0 -1 1 1 2 1 1 0 1 -0 -2 2 1 -1 0 1 -1 -4 -0 -2 -2 -1 -2 -0 -0 -2 -6 -2 -2 0 -4 1 -30 -0 -3 -1 -4 -5 1 -3 -1
Height
1516 1513 1511 1506 1504 1500 1497 1494 1492 1491 1490 1489 1490 1491 1492 1492 1491 1492 1493 1496 1497 1500 1500 1501 1505 1508 1510 1512 1515 1517 1524 1525 1526 1528 1528 1529 1529 1531 1531 1531 1532 1533 1534 1534 1535
1515 1511 1509 1504 1501 1498 1495 1492 1490 1488 1487 1487 1487 1489 1489 1489 1489 1489 1491 1492 1493 1496 1499 1499 1504 1508 1508 1510 1514 1514 1518 1518 1521 1522 1525 1529 1529 1530 1532 1531 1533 1532 1533 1533 1537
1512 1509 1507 1504 1499 1496 1493 1490 1489 1488 1486 1486 1486 1486 1487 1487 1488 1486 1488 1488 1493 1494 1497 1498 1502 1506 1506 1509 1512 1512 1512 1517 1522 1522 1524 1528 1531 1531 1533 1534 1537 1537 1534 1535 1538
1509 1507 1504 1502 1498 1495 1493 1491 1489 1488 1486 1486 1486 1486 1487 1487 1490 1485 1484 1485 1489 1494 1495 1496 1501 1505 1505 1508 1509 1512 1514 1516 1518 1521 1524 1528 1531 1532 1533 1535 1536 1536 1534 1535 1538
1509 1505 1502 1500 1497 1494 1493 1491 1489 1487 1487 1487 1486 1487 1487 1487 1487 1486 1484 1483 1488 1490 1493 1496 1499 1503 1504 1506 1509 1511 1511 1515 1519 1521 1524 1529 1531 1531 1531 1533 1534 1535 1535 1535 1537
1508 1504 1500 1498 1496 1494 1492 1490 1489 1487 1487 1487 1487 1487 1488 1488 1486 1485 1484 1484 1486 1488 1492 1495 1496 1501 1505 1505 1508 1508 1511 1515 1519 1525 1528 1528 1530 1530 1530 1531 1531 1532 1533 1535 1536
1506 1501 1497 1496 1494 1493 1491 1490 1488 1487 1486 1487 1487 1487 1488 1488 1485 1485 1485 1485 1486 1489 1492 1495 1497 1501 1503 1505 1506 1507 1515 1517 1518 1521 1527 1528 1527 1526 1527 1528 1530 1532 1534 1535 1536
1503 1499 1495 1493 1491 1491 1491 1488 1488 1488 1486 1486 1487 1487 1487 1486 1485 1484 1485 1484 1486 1489 1492 1495 1498 1500 1503 1505 1505 1507 1513 1518 1520 1519 1531 1533 1523 1524 1525 1526 1527 1531 1534 1535 1535
1501 1498 1493 1490 1488 1487 1488 1487 1487 1486 1487 1486 1487 1486 1487 1487 1486 1484 1484 1485 1487 1488 1491 1495 1498 1501 1503 1504 1508 1508 1512 1517 1521 1521 1525 1528 1529 1523 1523 1525 1526 1529 1532 1533 1533
1499 1496 1491 1487 1486 1486 1486 1486 1485 1486 1487 1486 1486 1488 1488 1488 1486 1484 1483 1484 1486 1487 1490 1494 1497 1499 1502 1502 1499 1506 1513 1517 1517 1523 1524 1526 1520 1522 1525 1527 1523 1527 1530 1531 1532
1496 1492 1489 1486 1483 1483 1485 1485 1488 1488 1486 1486 1488 1487 1487 1488 1486 1485 1484 1484 1484 1487 1488 1494 1499 1496 1497 1501 1499 1505 1510 1513 1518 1521 1525 1526 1528 1525 1526 1525 1521 1524 1527 1530 1530
1493 1490 1486 1483 1481 1481 1483 1485 1485 1487 1486 1485 1485 1486 1486 1487 1487 1486 1486 1487 1487 1487 1487 1496 1493 1498 1499 1500 1502 1504 1513 1516 1515 1516 1521 1524 1525 1523 1523 1523 1519 1521 1523 1527 1528
1490 1486 1483 1481 1480 1482 1484 1484 1484 1484 1486 1486 1486 1484 1486 1488 1487 1485 1487 1487 1489 1489 1487 1488 1491 1499 1499 1501 1504 1509 1510 1516 1516 1519 1522 1524 1524 1520 1517 1518 1518 1518 1520 1523 1524
1487 1483 1481 1480 1483 1482 1482 1483 1483 1483 1490 1487 1487 1487 1486 1486 1487 1485 1486 1488 1490 1489 1491 1490 1494 1497 1497 1500 1503 1509 1508 1510 1515 1518 1526 1520 1521 1513 1510 1511 1513 1515 1512 1513 1518
1484 1481 1480 1479 1482 1482 1483 1482 1483 1485 1501 1488 1487 1486 1485 1486 1488 1487 1486 1486 1486 1488 1492 1492 1493 1499 1497 1499 1501 1506 1507 1510 1515 1520 1520 1522 1523 1505 1505 1506 1502 1506 1504 1510 1512
1481 1479 1479 1480 1482 1484 1483 1484 1484 1497 1500 1485 1486 1486 1485 1485 1486 1487 1486 1487 1487 1487 1492 1493 1495 1497 1496 1501 1501 1504 1509 1514 1520 1520 1523 1517 1518 1502 1503 1495 1500 1505 1506 1508 1508
1479 1478 1479 1481 1483 1483 1484 1484 1493 1491 1488 1484 1486 1486 1486 1487 1487 1488 1486 1488 1490 1492 1493 1494 1496 1499 1498 1502 1504 1504 1509 1523 1527 1528 1524 1522 1523 1502 1497 1495 1496 1496 1498 1499 1500
1479 1479 1480 1482 1483 1485 1486 1489 1493 1483 1483 1481 1482 1487 1485 1487 1487 1486 1487 1490 1491 1491 1488 1491 1500 1499 1499 1500 1499 1504 1507 1518 1521 1524 1521 1527 1521 1500 1490 1491 1492 1492 1492 1493 1492
1480 1480 1482 1483 1484 1486 1488 1500 1492 1492 1485 1481 1480 1482 1480 1483 1483 1484 1486 1486 1492 1494 1491 1491 1497 1499 1501 1500 1502 1506 1515 1515 1530 1542 1531 1516 1513 1496 1489 1489 1488 1486 1486 1487 1488
1480 1481 1482 1483 1484 1485 1489 1487 1488 1482 1480 1481 1480 1480 1481 1480 1480 1481 1482 1483 1490 1491 1491 1493 1495 1500 1502 1500 1504 1504 1509 1516 1529 1530 1525 1522 1518 1499 1491 1490 1486 1485 1484 1484 1485
1479 1480 1482 1482 1484 1485 1493 1487 1480 1478 1479 1479 1478 1476 1480 1481 1483 1486 1486 1481 1484 1489 1487 1490 1491 1503 1500 1504 1505 1509 1511 1516 1516 1523 1516 1521 1506 1496 1491 1488 1486 1483 1482 1481 1484
1479 1481 1481 1482 1485 1485 1484 1480 1476 1476 1478 1477 1477 1476 1475 1477 1480 1480 1482 1481 1480 1482 1486 1490 1492 1501 1504 1503 1505 1506 1508 1511 1517 1525 1538 1529 1509 1490 1490 1487 1486 1483 1480 1482 1485
1477 1479 1481 1481 1487 1484 1479 1476 1475 1475 1476 1477 1476 1474 1474 1477 1481 1481 1480 1479 1479 1482 1485 1488 1503 1505 1507 1506 1508 1507 1506 1510 1516 1523 1530 1514 1500 1488 1488 1485 1487 1486 1484 1483 1487
1476 1481 1481 1481 1481 1481 1480 1478 1475 1474 1476 1477 1476 1474 1474 1476 1476 1479 1480 1480 1481 1483 1483 1484 1496 1497 1505 1500 1499 1505 1502 1505 1507 1510 1512 1498 1497 1485 1485 1485 1484 1484 1484 1485 1487
1474 1478 1478 1484 1483 1481 1481 1479 1477 1479 1476 1473 1473 1477 1476 1478 1480 1481 1480 1481 1480 1482 1484 1485 1497 1500 1495 1495 1499 1499 1497 1498 1499 1496 1498 1488 1488 1483 1481 1482 1482 1481 1481 1483 1486
1473 1475 1478 1481 1483 1483 1482 1483 1483 1482 1479 1476 1476 1477 1477 1478 1483 1481 1480 1479 1478 1483 1485 1488 1501 1498 1498 1494 1496 1496 1496 1494 1492 1492 1486 1487 1476 1479 1478 1479 1479 1478 1479 1480 1482
1470 1472 1474 1480 1481 1484 1487 1486 1485 1484 1481 1480 1480 1478 1479 1481 1478 1478 1480 1479 1478 1480 1485 1488 1495 1499 1501 1496 1493 1494 1484 1486 1484 1481 1481 1484 1464 1476 1474 1475 1474 1474 1475 1474 1474